Weather in Lincoln

United Kingdom     53°14′12″N   0°32′15″E
temp.,
°C
wind,
m/s
gust,
m/s
humid.,
%
clouds,
%
prec.,
mm/h
press.,
hPa
HPBL,
m
20 april, tue
tue2001:00+4se22902 0.0 102022
04:00+4se119082 0.0 101910
07:00+5e0088100 0.0 101911
10:00+11e0070100 0.0 1019399
13:00+15n1158100 0.1 10181324
16:00+15n225095 0.1 10171783
19:00+12ese467694 0.3 1018154
22:00+8e228093 0.0 101941
21 april, wed
wed2101:00+8nne3675100 0.0 1020195
04:00+7nne51087100 0.1 1021472
07:00+7nne51079100 0.3 1023744
10:00+8ne686626 0.0 1024985
13:00+10ne67515 0.0 10251454
16:00+10ne67515 0.0 10251443
19:00+6ne566419 0.0 1026796
22:00+2ne337925 0.0 102740
22 april, thu
thu2201:00+1nne22825 0.0 102715
04:000nnw228679 0.0 102716
07:00+1nnw237998 0.0 102894
10:00+8nne235858 0.0 1028625
13:00+12nne225193 0.0 10281271
16:00+13n124741 0.0 10271605
19:00+10se46725 0.0 1028295
22:00+3ese33875 0.0 102933
23 april, fri
fri2301:00+2e11875 0.0 102910
04:00+1e11865 0.0 102910
07:00+3ese118333 0.0 103017
10:00+9ese23575 0.0 1030686
13:00+12ese34485 0.0 10281194
16:00+13ese5546100 0.0 10271063
19:00+8e5766100 0.0 1027309
22:00+3e498899 0.0 1028153
24 april, sat
sat2401:00+3e379394 0.0 1027115
04:00+2e369298 0.0 102795
07:00+4ene3888100 0.0 1027229
10:00+9e6766100 0.0 1027773
13:00+11e7861100 0.0 10261089
16:00+11e7864100 0.0 1026981
19:00+8ene5874100 0.0 1026710
22:00+6ene41088100 0.0 1027460